Location: Franzen
(48.6167°N, 15.3833°E)
Time: 20:40:30
(UTC+00:00)

Transit 2A - Pass Details

Date: 11 August 2021
Orbit: 594 x 964 km, 66.7° (Epoch: 27 September)

Event Time Altitude Azimuth Distance (km) Brightness Sun altitude
Rises 02:57:42 0° 208° (SSW) 2,848 - -7.8°
Exits shadow 02:59:06 - 207° (SSW) 2,280 7.9 -7.6°
Reaches altitude 10° 02:59:52 10° 207° (SSW) 1,972 7.6 -7.5°
Maximum altitude 03:04:17 75° 122° (ESE) 675 5.8 -6.9°
Drops below altitude 10° 03:09:06 10° 38° (NE) 2,153 9.7 -6.3°
Sets 03:11:33 0° 37° (NE) 3,134 10.7 -5.9°
